M I D A S
Marine Information and Data Acquisition System
Tripno 2031 of the Zeeleeuw from 2011-01-14 07:38:52 to 2011-01-14 15:06:52
Back to CruiseResearch ActivitiesStationsMapUnderway DataData graphs

EquipmentUnitsComment
TimeDGPSUTC
LatitudeDGPSDM.mWGS84
LongitudeDGPSDM.mWGS84
TemperatureSBE03/SBE38deg celciusITS90
ConductivitySBE21S/mITS90
SalinitySBE21 Practical Salinity Units
ChlorophylAChelsea fluorimeterg/lCalibrated in Aceton
Missing or incorrect values are displayed as -999
Sea surface data collected by the RV Zeeleeuw from 2011-01-14 07:43:22 to 2011-01-14 15:16:46
                                                                                    Next 1000 lines
Time Latitude Longitude Temperature Conductivity Salinity ChlorophylA
2011-01-14 07:43:32 51°13.661 2°55.956 5.955 -999 -999 -999
2011-01-14 07:43:37 51°13.662 2°55.953 5.9648 -999 -999 -999
2011-01-14 07:43:42 51°13.663 2°55.949 5.9527 -999 -999 -999
2011-01-14 07:43:47 51°13.665 2°55.944 5.9549 -999 -999 -999
2011-01-14 07:43:53 51°13.667 2°55.937 5.958 -999 -999 -999
2011-01-14 07:43:58 51°13.669 2°55.93 5.9836 -999 -999 -999
2011-01-14 07:44:04 51°13.671 2°55.921 6.0066 -999 -999 -999
2011-01-14 07:44:09 51°13.674 2°55.913 6.0367 -999 -999 -999
2011-01-14 07:44:16 51°13.677 2°55.9 6.0449 -999 -999 -999
2011-01-14 07:44:21 51°13.679 2°55.891 6.0429 -999 -999 -999
2011-01-14 07:44:26 51°13.681 2°55.881 6.0311 -999 -999 -999
2011-01-14 07:44:31 51°13.683 2°55.872 6.0231 -999 -999 -999
2011-01-14 07:44:36 51°13.685 2°55.863 6.0189 -999 -999 -999
2011-01-14 07:44:41 51°13.686 2°55.854 6.0069 -999 -999 -999
2011-01-14 07:44:46 51°13.688 2°55.846 6.0028 -999 -999 -999
2011-01-14 07:44:51 51°13.689 2°55.837 5.9993 -999 -999 -999
2011-01-14 07:44:56 51°13.691 2°55.829 5.9972 -999 -999 -999
2011-01-14 07:45:01 51°13.692 2°55.822 5.9977 -999 -999 -999
2011-01-14 07:45:05 51°13.693 2°55.816 5.9911 -999 -999 -999
2011-01-14 07:45:11 51°13.695 2°55.807 5.9856 -999 -999 -999
2011-01-14 07:45:16 51°13.695 2°55.8 5.9855 -999 -999 -999
2011-01-14 07:45:21 51°13.696 2°55.793 5.9835 -999 -999 -999
2011-01-14 07:45:25 51°13.697 2°55.788 5.985 -999 -999 -999
2011-01-14 07:45:30 51°13.698 2°55.782 5.99 -999 -999 -999
2011-01-14 07:45:35 51°13.698 2°55.778 5.9841 -999 -999 -999
2011-01-14 07:45:40 51°13.699 2°55.775 5.9854 -999 -999 -999
2011-01-14 07:45:45 51°13.699 2°55.773 5.9818 -999 -999 -999
2011-01-14 07:45:50 51°13.7 2°55.771 5.9894 -999 -999 -999
2011-01-14 07:45:55 51°13.701 2°55.77 5.9868 -999 -999 -999
2011-01-14 07:46:00 51°13.701 2°55.769 5.9849 -999 -999 -999
2011-01-14 07:46:05 51°13.702 2°55.768 5.9928 -999 -999 -999
2011-01-14 07:46:09 51°13.702 2°55.767 5.994 -999 -999 -999
2011-01-14 07:46:14 51°13.703 2°55.766 5.9929 -999 -999 -999
2011-01-14 07:46:19 51°13.703 2°55.765 5.9978 -999 -999 -999
2011-01-14 07:46:24 51°13.704 2°55.763 6.0108 -999 -999 -999
2011-01-14 07:46:29 51°13.703 2°55.761 6.0104 -999 -999 -999
2011-01-14 07:46:33 51°13.703 2°55.759 6.0213 -999 -999 -999
2011-01-14 07:46:38 51°13.702 2°55.756 6.0296 -999 -999 -999
2011-01-14 07:46:43 51°13.701 2°55.753 6.0362 -999 -999 -999
2011-01-14 07:46:48 51°13.7 2°55.75 6.0271 -999 -999 -999
2011-01-14 07:46:53 51°13.699 2°55.748 5.9999 -999 -999 -999
2011-01-14 07:46:59 51°13.698 2°55.745 6.0034 -999 -999 -999
2011-01-14 07:47:05 51°13.699 2°55.744 5.988 -999 -999 -999
2011-01-14 07:47:10 51°13.699 2°55.743 5.9839 -999 -999 -999
2011-01-14 07:47:16 51°13.7 2°55.743 5.9736 -999 -999 -999
2011-01-14 07:47:21 51°13.702 2°55.742 5.9711 -999 -999 -999
2011-01-14 07:47:26 51°13.703 2°55.742 5.9741 -999 -999 -999
2011-01-14 07:47:30 51°13.705 2°55.742 5.964 -999 -999 -999
2011-01-14 07:47:35 51°13.707 2°55.742 5.9634 -999 -999 -999
2011-01-14 07:47:40 51°13.709 2°55.741 5.9646 -999 -999 -999
2011-01-14 07:47:45 51°13.712 2°55.74 5.9602 -999 -999 -999
2011-01-14 07:47:50 51°13.715 2°55.738 5.9648 -999 -999 -999
2011-01-14 07:47:55 51°13.718 2°55.737 5.9598 -999 -999 -999
2011-01-14 07:48:00 51°13.721 2°55.734 5.9654 -999 -999 -999
2011-01-14 07:48:05 51°13.725 2°55.732 5.9653 -999 -999 -999
2011-01-14 07:48:09 51°13.728 2°55.729 5.9662 -999 -999 -999
2011-01-14 07:48:14 51°13.733 2°55.725 5.9639 -999 -999 -999
2011-01-14 07:48:19 51°13.738 2°55.721 5.9583 -999 -999 -999
2011-01-14 07:48:24 51°13.743 2°55.716 5.9577 -999 -999 -999
2011-01-14 07:48:29 51°13.749 2°55.711 5.9603 -999 -999 -999
2011-01-14 07:48:33 51°13.754 2°55.707 5.9617 -999 -999 -999
2011-01-14 07:48:38 51°13.759 2°55.7 5.9655 -999 -999 -999
2011-01-14 07:48:43 51°13.767 2°55.693 5.9713 -999 -999 -999
2011-01-14 07:48:48 51°13.774 2°55.686 5.9786 -999 -999 -999
2011-01-14 07:48:52 51°13.78 2°55.679 5.9973 -999 -999 -999
2011-01-14 07:48:58 51°13.789 2°55.667 6.0191 -999 -999 -999
2011-01-14 07:49:03 51°13.797 2°55.659 6.0443 -999 -999 -999
2011-01-14 07:49:08 51°13.806 2°55.652 6.0546 -999 -999 -999
2011-01-14 07:49:13 51°13.815 2°55.644 6.0755 -999 -999 -999
2011-01-14 07:49:17 51°13.823 2°55.637 6.0842 -999 -999 -999
2011-01-14 07:49:23 51°13.835 2°55.628 6.085 -999 -999 -999
2011-01-14 07:49:28 51°13.845 2°55.619 6.0824 -999 -999 -999
2011-01-14 07:49:33 51°13.856 2°55.611 6.0761 -999 -999 -999
2011-01-14 07:49:37 51°13.864 2°55.605 6.0748 -999 -999 -999
2011-01-14 07:49:42 51°13.875 2°55.596 6.0674 -999 -999 -999
2011-01-14 07:49:48 51°13.89 2°55.586 6.0496 -999 -999 -999
2011-01-14 07:49:53 51°13.902 2°55.578 6.0323 -999 -999 -999
2011-01-14 07:49:59 51°13.916 2°55.568 6.0296 -999 -999 -999
2011-01-14 07:50:05 51°13.931 2°55.558 6.031 -999 -999 -999
2011-01-14 07:50:11 51°13.946 2°55.55 6.0117 -999 -999 -999
2011-01-14 07:50:16 51°13.959 2°55.542 6.0127 -999 -999 -999
2011-01-14 07:50:21 51°13.971 2°55.533 5.9953 -999 -999 -999
2011-01-14 07:50:25 51°13.982 2°55.524 6.0031 -999 -999 -999
2011-01-14 07:50:30 51°13.995 2°55.515 5.9903 -999 -999 -999
2011-01-14 07:50:36 51°14.01 2°55.505 5.9853 -999 -999 -999
2011-01-14 07:50:41 51°14.023 2°55.497 5.9848 -999 -999 -999
2011-01-14 07:50:45 51°14.033 2°55.49 5.9991 -999 -999 -999
2011-01-14 07:50:50 51°14.046 2°55.481 6.0167 -999 -999 -999
2011-01-14 07:50:55 51°14.059 2°55.473 6.0381 -999 -999 -999
2011-01-14 07:51:00 51°14.071 2°55.464 6.0573 -999 -999 -999
2011-01-14 07:51:05 51°14.085 2°55.455 6.0611 -999 -999 -999
2011-01-14 07:51:10 51°14.097 2°55.445 6.0528 -999 -999 -999
2011-01-14 07:51:15 51°14.111 2°55.435 6.0553 -999 -999 -999
2011-01-14 07:51:20 51°14.124 2°55.425 6.041 -999 -999 -999
2011-01-14 07:51:25 51°14.137 2°55.415 6.0298 -999 -999 -999
2011-01-14 07:51:30 51°14.151 2°55.405 6.0202 -999 -999 -999
2011-01-14 07:51:35 51°14.164 2°55.395 6.0092 -999 -999 -999
2011-01-14 07:51:41 51°14.18 2°55.381 5.9975 -999 -999 -999
2011-01-14 07:51:46 51°14.193 2°55.369 5.9894 -999 -999 -999
2011-01-14 07:51:51 51°14.206 2°55.357 5.9957 -999 -999 -999
2011-01-14 07:51:56 51°14.218 2°55.344 5.9801 -999 -999 -999
2011-01-14 07:52:00 51°14.229 2°55.334 5.9819 -999 -999 -999
2011-01-14 07:52:05 51°14.241 2°55.32 5.9823 -999 -999 -999
2011-01-14 07:52:10 51°14.253 2°55.307 5.9751 -999 -999 -999
2011-01-14 07:52:16 51°14.268 2°55.29 5.9879 -999 -999 -999
2011-01-14 07:52:21 51°14.281 2°55.276 5.9834 -999 -999 -999
2011-01-14 07:52:25 51°14.291 2°55.266 5.983 -999 -999 -999
2011-01-14 07:52:30 51°14.303 2°55.251 5.9704 -999 -999 -999
2011-01-14 07:52:36 51°14.318 2°55.235 5.9727 -999 -999 -999
2011-01-14 07:52:40 51°14.328 2°55.224 5.978 -999 -999 -999
2011-01-14 07:52:46 51°14.344 2°55.207 5.98 -999 -999 -999
2011-01-14 07:52:50 51°14.354 2°55.196 5.9827 -999 -999 -999
2011-01-14 07:52:55 51°14.367 2°55.184 5.9978 -999 -999 -999
2011-01-14 07:53:00 51°14.381 2°55.172 6 -999 -999 -999
2011-01-14 07:53:05 51°14.395 2°55.16 5.9957 -999 -999 -999
2011-01-14 07:53:10 51°14.409 2°55.148 6.0125 -999 -999 -999
2011-01-14 07:53:15 51°14.423 2°55.137 6.0234 -999 -999 -999
2011-01-14 07:53:21 51°14.44 2°55.124 6.0497 -999 -999 -999
2011-01-14 07:53:26 51°14.454 2°55.112 6.063 -999 -999 -999
2011-01-14 07:53:31 51°14.468 2°55.1 6.0679 -999 -999 -999
2011-01-14 07:53:35 51°14.48 2°55.09 6.0814 -999 -999 -999
2011-01-14 07:53:40 51°14.495 2°55.079 6.0904 -999 -999 -999
2011-01-14 07:53:45 51°14.509 2°55.067 6.0995 -999 -999 -999
2011-01-14 07:53:50 51°14.525 2°55.056 6.1107 -999 -999 -999
2011-01-14 07:53:55 51°14.54 2°55.045 6.1096 -999 -999 -999
2011-01-14 07:53:59 51°14.553 2°55.037 6.1157 -999 -999 -999
2011-01-14 07:54:04 51°14.569 2°55.027 6.1185 -999 -999 -999
2011-01-14 07:54:09 51°14.586 2°55.019 6.1265 -999 -999 -999
2011-01-14 07:54:14 51°14.603 2°55.011 6.1359 -999 -999 -999
2011-01-14 07:54:19 51°14.62 2°55.003 6.1503 -999 -999 -999
2011-01-14 07:54:24 51°14.637 2°54.994 6.1723 -999 -999 -999
2011-01-14 07:54:28 51°14.651 2°54.987 6.2 -999 -999 -999
2011-01-14 07:54:34 51°14.671 2°54.976 6.2238 -999 -999 -999
2011-01-14 07:54:39 51°14.689 2°54.968 6.2523 -999 -999 -999
2011-01-14 07:54:43 51°14.702 2°54.961 6.2739 -999 -999 -999
2011-01-14 07:54:48 51°14.721 2°54.955 6.2985 -999 -999 -999
2011-01-14 07:54:53 51°14.738 2°54.948 6.3191 -999 -999 -999
2011-01-14 07:54:58 51°14.756 2°54.941 6.3358 -999 -999 -999
2011-01-14 07:55:03 51°14.774 2°54.935 6.3578 -999 -999 -999
2011-01-14 07:55:07 51°14.789 2°54.931 6.3668 -999 -999 -999
2011-01-14 07:55:12 51°14.807 2°54.925 6.3871 -999 -999 -999
2011-01-14 07:55:17 51°14.826 2°54.92 6.401 -999 -999 -999
2011-01-14 07:55:22 51°14.845 2°54.915 6.4013 -999 -999 -999
2011-01-14 07:55:27 51°14.863 2°54.909 6.4044 -999 -999 -999
2011-01-14 07:55:32 51°14.882 2°54.905 6.4143 -999 -999 -999
2011-01-14 07:55:37 51°14.901 2°54.9 6.4235 -999 -999 -999
2011-01-14 07:55:42 51°14.92 2°54.894 6.4256 -999 -999 -999
2011-01-14 07:55:47 51°14.938 2°54.889 6.4348 -999 -999 -999
2011-01-14 07:55:52 51°14.957 2°54.882 6.4332 -999 -999 -999
2011-01-14 07:55:57 51°14.975 2°54.875 6.4272 -999 -999 -999
2011-01-14 07:56:02 51°14.993 2°54.867 6.4173 -999 -999 -999
2011-01-14 07:56:07 51°15.011 2°54.858 6.4057 -999 -999 -999
2011-01-14 07:56:12 51°15.029 2°54.849 6.4008 -999 -999 -999
2011-01-14 07:56:17 51°15.046 2°54.839 6.3874 -999 -999 -999
2011-01-14 07:56:22 51°15.063 2°54.829 6.3868 -999 -999 -999
2011-01-14 07:56:27 51°15.081 2°54.819 6.3821 -999 -999 -999
2011-01-14 07:56:32 51°15.098 2°54.809 6.3705 -999 -999 -999
2011-01-14 07:56:37 51°15.115 2°54.798 6.3667 -999 -999 -999
2011-01-14 07:56:42 51°15.133 2°54.787 6.3546 -999 -999 -999
2011-01-14 07:56:47 51°15.149 2°54.776 6.3461 -999 -999 -999
2011-01-14 07:56:52 51°15.165 2°54.764 6.3358 -999 -999 -999
2011-01-14 07:56:57 51°15.181 2°54.75 6.3272 -999 -999 -999
2011-01-14 07:57:02 51°15.198 2°54.738 6.323 -999 -999 -999
2011-01-14 07:57:07 51°15.213 2°54.723 6.3067 -999 -999 -999
2011-01-14 07:57:11 51°15.225 2°54.713 6.2834 -999 -999 -999
2011-01-14 07:57:17 51°15.243 2°54.694 6.2626 -999 -999 -999
2011-01-14 07:57:22 51°15.258 2°54.678 6.2319 -999 -999 -999
2011-01-14 07:57:27 51°15.273 2°54.663 6.2119 -999 -999 -999
2011-01-14 07:57:32 51°15.287 2°54.645 6.1993 -999 -999 -999
2011-01-14 07:57:37 51°15.3 2°54.629 6.1875 -999 -999 -999
2011-01-14 07:57:42 51°15.314 2°54.611 6.166 -999 -999 -999
2011-01-14 07:57:47 51°15.328 2°54.593 6.1719 -999 -999 -999
2011-01-14 07:57:51 51°15.339 2°54.579 6.1426 -999 -999 -999
2011-01-14 07:57:57 51°15.355 2°54.558 6.1133 -999 -999 -999
2011-01-14 07:58:02 51°15.368 2°54.54 6.0876 -999 -999 -999
2011-01-14 07:58:07 51°15.382 2°54.524 6.0649 -999 -999 -999
2011-01-14 07:58:12 51°15.396 2°54.506 6.0377 -999 -999 -999
2011-01-14 07:58:17 51°15.409 2°54.489 6.0073 -999 -999 -999
2011-01-14 07:58:22 51°15.423 2°54.471 5.989 -999 -999 -999
2011-01-14 07:58:27 51°15.437 2°54.453 5.9962 -999 -999 -999
2011-01-14 07:58:32 51°15.451 2°54.436 5.968 -999 -999 -999
2011-01-14 07:58:37 51°15.464 2°54.417 5.9488 -999 -999 -999
2011-01-14 07:58:42 51°15.478 2°54.4 5.9403 -999 -999 -999
2011-01-14 07:58:47 51°15.491 2°54.382 5.9433 -999 -999 -999
2011-01-14 07:58:52 51°15.505 2°54.364 5.9216 -999 -999 -999
2011-01-14 07:58:57 51°15.519 2°54.347 5.918 -999 -999 -999
2011-01-14 07:59:02 51°15.532 2°54.328 5.9239 -999 -999 -999
2011-01-14 07:59:07 51°15.546 2°54.311 5.9109 -999 -999 -999
2011-01-14 07:59:12 51°15.559 2°54.292 5.905 -999 -999 -999
2011-01-14 07:59:17 51°15.572 2°54.274 5.904 -999 -999 -999
2011-01-14 07:59:22 51°15.585 2°54.256 5.9037 -999 -999 -999
2011-01-14 07:59:27 51°15.598 2°54.237 5.8994 -999 -999 -999
2011-01-14 07:59:32 51°15.612 2°54.219 5.8875 -999 -999 -999
2011-01-14 07:59:37 51°15.625 2°54.201 5.8776 -999 -999 -999
2011-01-14 07:59:42 51°15.638 2°54.183 5.8828 -999 -999 -999
2011-01-14 07:59:47 51°15.652 2°54.165 5.8779 -999 -999 -999
2011-01-14 07:59:52 51°15.665 2°54.146 5.8725 -999 -999 -999
2011-01-14 07:59:57 51°15.679 2°54.128 5.8696 -999 -999 -999
2011-01-14 08:00:02 51°15.693 2°54.111 5.8677 -999 -999 -999
2011-01-14 08:00:07 51°15.706 2°54.093 5.8598 -999 -999 -999
2011-01-14 08:00:12 51°15.72 2°54.076 5.8724 -999 -999 -999
2011-01-14 08:00:17 51°15.732 2°54.058 5.871 -999 -999 -999
2011-01-14 08:00:23 51°15.749 2°54.036 5.8568 -999 -999 -999
2011-01-14 08:00:27 51°15.759 2°54.022 5.8492 -999 -999 -999
2011-01-14 08:00:32 51°15.773 2°54.004 5.8295 -999 -999 -999
2011-01-14 08:00:37 51°15.786 2°53.985 5.8087 -999 -999 -999
2011-01-14 08:00:42 51°15.799 2°53.967 5.7818 -999 -999 -999
2011-01-14 08:00:47 51°15.812 2°53.949 5.7807 -999 -999 -999
2011-01-14 08:00:51 51°15.822 2°53.934 5.7444 -999 -999 -999
2011-01-14 08:00:57 51°15.838 2°53.913 5.7449 -999 -999 -999
2011-01-14 08:01:02 51°15.851 2°53.895 5.7224 -999 -999 -999
2011-01-14 08:01:07 51°15.865 2°53.877 5.6974 -999 -999 -999
2011-01-14 08:01:12 51°15.878 2°53.859 5.6985 -999 -999 -999
2011-01-14 08:01:17 51°15.891 2°53.841 5.6804 -999 -999 -999
2011-01-14 08:01:22 51°15.905 2°53.823 5.6643 -999 -999 -999
2011-01-14 08:01:27 51°15.918 2°53.805 5.6562 -999 -999 -999
2011-01-14 08:01:32 51°15.932 2°53.788 5.6422 -999 -999 -999
2011-01-14 08:01:37 51°15.945 2°53.77 5.6337 -999 -999 -999
2011-01-14 08:01:42 51°15.959 2°53.754 5.639 -999 -999 -999
2011-01-14 08:01:47 51°15.973 2°53.736 5.6239 -999 -999 -999
2011-01-14 08:01:52 51°15.987 2°53.72 5.6188 -999 -999 -999
2011-01-14 08:01:57 51°16.002 2°53.704 5.6166 -999 -999 -999
2011-01-14 08:02:02 51°16.015 2°53.686 5.6137 -999 -999 -999
2011-01-14 08:02:07 51°16.03 2°53.669 5.6101 -999 -999 -999
2011-01-14 08:02:12 51°16.044 2°53.652 5.612 -999 -999 -999
2011-01-14 08:02:17 51°16.058 2°53.636 5.596 -999 -999 -999
2011-01-14 08:02:22 51°16.072 2°53.619 5.5986 -999 -999 -999
2011-01-14 08:02:27 51°16.086 2°53.602 5.5966 -999 -999 -999
2011-01-14 08:02:32 51°16.101 2°53.586 5.5938 -999 -999 -999
2011-01-14 08:02:37 51°16.114 2°53.568 5.5981 -999 -999 -999
2011-01-14 08:02:42 51°16.128 2°53.551 5.5842 -999 -999 -999
2011-01-14 08:02:47 51°16.143 2°53.534 5.5722 -999 -999 -999
2011-01-14 08:02:52 51°16.156 2°53.517 5.5676 -999 -999 -999
2011-01-14 08:02:57 51°16.171 2°53.502 5.5663 -999 -999 -999
2011-01-14 08:03:02 51°16.185 2°53.485 5.5595 -999 -999 -999
2011-01-14 08:03:07 51°16.199 2°53.469 5.5555 -999 -999 -999
2011-01-14 08:03:12 51°16.213 2°53.452 5.5433 -999 -999 -999
2011-01-14 08:03:17 51°16.227 2°53.435 5.5403 -999 -999 -999
2011-01-14 08:03:22 51°16.241 2°53.42 5.5367 -999 -999 -999
2011-01-14 08:03:27 51°16.255 2°53.403 5.5332 -999 -999 -999
2011-01-14 08:03:32 51°16.269 2°53.387 5.5306 -999 -999 -999
2011-01-14 08:03:37 51°16.283 2°53.37 5.5349 -999 -999 -999
2011-01-14 08:03:42 51°16.297 2°53.353 5.5297 -999 -999 -999
2011-01-14 08:03:47 51°16.311 2°53.337 5.5219 -999 -999 -999
2011-01-14 08:03:52 51°16.325 2°53.321 5.5138 -999 -999 -999
2011-01-14 08:03:57 51°16.339 2°53.304 5.5132 -999 -999 -999
2011-01-14 08:04:02 51°16.353 2°53.288 5.509 -999 -999 -999
2011-01-14 08:04:07 51°16.367 2°53.272 5.5058 -999 -999 -999
2011-01-14 08:04:12 51°16.381 2°53.255 5.5045 -999 -999 -999
2011-01-14 08:04:17 51°16.395 2°53.239 5.4993 -999 -999 -999
2011-01-14 08:04:22 51°16.41 2°53.223 5.4999 -999 -999 -999
2011-01-14 08:04:27 51°16.424 2°53.207 5.5096 -999 -999 -999
2011-01-14 08:04:32 51°16.44 2°53.192 5.5015 -999 -999 -999
2011-01-14 08:04:37 51°16.455 2°53.176 5.5035 -999 -999 -999
2011-01-14 08:04:42 51°16.47 2°53.161 5.502 -999 -999 -999
2011-01-14 08:04:47 51°16.485 2°53.147 5.5101 -999 -999 -999
2011-01-14 08:04:52 51°16.5 2°53.131 5.5097 -999 -999 -999
2011-01-14 08:04:57 51°16.516 2°53.117 5.5178 -999 -999 -999
2011-01-14 08:05:02 51°16.531 2°53.102 5.519 -999 -999 -999
2011-01-14 08:05:07 51°16.547 2°53.087 5.5282 -999 -999 -999
2011-01-14 08:05:12 51°16.561 2°53.072 5.542 -999 -999 -999
2011-01-14 08:05:17 51°16.577 2°53.058 5.5566 -999 -999 -999
2011-01-14 08:05:22 51°16.592 2°53.042 5.5668 -999 -999 -999
2011-01-14 08:05:27 51°16.607 2°53.028 5.5791 -999 -999 -999
2011-01-14 08:05:32 51°16.622 2°53.015 5.5895 -999 -999 -999
2011-01-14 08:05:37 51°16.637 2°53 5.5896 -999 -999 -999
2011-01-14 08:05:42 51°16.652 2°52.986 5.595 -999 -999 -999
2011-01-14 08:05:47 51°16.668 2°52.972 5.6028 -999 -999 -999
2011-01-14 08:05:51 51°16.68 2°52.96 5.6124 -999 -999 -999
2011-01-14 08:05:57 51°16.699 2°52.944 5.6228 -999 -999 -999
2011-01-14 08:06:02 51°16.713 2°52.928 5.6217 -999 -999 -999
2011-01-14 08:06:07 51°16.729 2°52.914 5.6264 -999 -999 -999
2011-01-14 08:06:12 51°16.744 2°52.9 5.6313 -999 -999 -999
2011-01-14 08:06:17 51°16.759 2°52.886 5.6414 -999 -999 -999
2011-01-14 08:06:22 51°16.774 2°52.871 5.6439 -999 -999 -999
2011-01-14 08:06:27 51°16.79 2°52.857 5.652 -999 -999 -999
2011-01-14 08:06:32 51°16.804 2°52.841 5.6569 -999 -999 -999
2011-01-14 08:06:37 51°16.821 2°52.829 5.6588 -999 -999 -999
2011-01-14 08:06:42 51°16.835 2°52.812 5.66 -999 -999 -999
2011-01-14 08:06:47 51°16.851 2°52.799 5.665 -999 -999 -999
2011-01-14 08:06:52 51°16.866 2°52.784 5.6691 -999 -999 -999
2011-01-14 08:06:57 51°16.881 2°52.77 5.6702 -999 -999 -999
2011-01-14 08:07:02 51°16.897 2°52.755 5.6723 -999 -999 -999
2011-01-14 08:07:07 51°16.912 2°52.741 5.6753 -999 -999 -999
2011-01-14 08:07:11 51°16.925 2°52.73 5.6806 -999 -999 -999
2011-01-14 08:07:17 51°16.944 2°52.713 5.6909 -999 -999 -999
2011-01-14 08:07:22 51°16.96 2°52.7 5.699 -999 -999 -999
2011-01-14 08:07:27 51°16.976 2°52.686 5.7133 -999 -999 -999
2011-01-14 08:07:32 51°16.992 2°52.674 5.7239 -999 -999 -999
2011-01-14 08:07:37 51°17.01 2°52.664 5.7333 -999 -999 -999
2011-01-14 08:07:42 51°17.027 2°52.655 5.7447 -999 -999 -999
2011-01-14 08:07:47 51°17.044 2°52.645 5.754 -999 -999 -999
2011-01-14 08:07:51 51°17.059 2°52.642 5.7527 -999 -999 -999
2011-01-14 08:07:57 51°17.08 2°52.63 5.753 -999 -999 -999
2011-01-14 08:08:02 51°17.099 2°52.627 5.7577 -999 -999 -999
2011-01-14 08:08:07 51°17.116 2°52.618 5.7529 -999 -999 -999
2011-01-14 08:08:12 51°17.135 2°52.615 5.7362 -999 -999 -999
2011-01-14 08:08:17 51°17.152 2°52.607 5.7398 -999 -999 -999
2011-01-14 08:08:22 51°17.17 2°52.604 5.7076 -999 -999 -999
2011-01-14 08:08:27 51°17.188 2°52.598 5.6973 -999 -999 -999
2011-01-14 08:08:31 51°17.203 2°52.598 5.6715 -999 -999 -999
2011-01-14 08:08:37 51°17.226 2°52.591 5.6652 -999 -999 -999
2011-01-14 08:08:42 51°17.244 2°52.588 5.6549 -999 -999 -999
2011-01-14 08:08:47 51°17.262 2°52.586 5.6382 -999 -999 -999
2011-01-14 08:08:52 51°17.281 2°52.583 5.6214 -999 -999 -999
2011-01-14 08:08:57 51°17.3 2°52.579 5.6315 -999 -999 -999
2011-01-14 08:09:02 51°17.318 2°52.579 5.5677 -999 -999 -999
2011-01-14 08:09:07 51°17.337 2°52.573 5.5544 -999 -999 -999
2011-01-14 08:09:11 51°17.351 2°52.569 5.5348 -999 -999 -999
2011-01-14 08:09:17 51°17.373 2°52.563 5.5159 -999 -999 -999
2011-01-14 08:09:22 51°17.392 2°52.56 5.4922 -999 -999 -999
2011-01-14 08:09:27 51°17.41 2°52.554 5.4854 -999 -999 -999
2011-01-14 08:09:32 51°17.429 2°52.553 5.4504 -999 -999 -999
2011-01-14 08:09:37 51°17.447 2°52.548 5.4504 -999 -999 -999
2011-01-14 08:09:42 51°17.466 2°52.546 5.4411 -999 -999 -999
2011-01-14 08:09:47 51°17.484 2°52.543 5.4364 -999 -999 -999
2011-01-14 08:09:51 51°17.499 2°52.542 5.4291 -999 -999 -999
2011-01-14 08:09:57 51°17.521 2°52.539 5.4209 -999 -999 -999
2011-01-14 08:10:02 51°17.54 2°52.538 5.4178 -999 -999 -999
2011-01-14 08:10:07 51°17.558 2°52.535 5.4161 -999 -999 -999
2011-01-14 08:10:12 51°17.577 2°52.535 5.4155 -999 -999 -999
2011-01-14 08:10:17 51°17.595 2°52.535 5.416 -999 -999 -999
2011-01-14 08:10:22 51°17.614 2°52.533 5.4196 -999 -999 -999
2011-01-14 08:10:27 51°17.633 2°52.532 5.4153 -999 -999 -999
2011-01-14 08:10:32 51°17.651 2°52.529 5.4188 -999 -999 -999
2011-01-14 08:10:37 51°17.669 2°52.527 5.4148 -999 -999 -999
2011-01-14 08:10:42 51°17.688 2°52.525 5.4158 -999 -999 -999
2011-01-14 08:10:47 51°17.707 2°52.522 5.453 -999 -999 -999
2011-01-14 08:10:52 51°17.726 2°52.522 5.4565 -999 -999 -999
2011-01-14 08:10:57 51°17.745 2°52.52 5.4284 -999 -999 -999
2011-01-14 08:11:02 51°17.763 2°52.514 5.4443 -999 -999 -999
2011-01-14 08:11:07 51°17.781 2°52.51 5.4359 -999 -999 -999
2011-01-14 08:11:12 51°17.8 2°52.506 5.4438 -999 -999 -999
2011-01-14 08:11:17 51°17.818 2°52.504 5.4414 -999 -999 -999
2011-01-14 08:11:22 51°17.836 2°52.498 5.4416 -999 -999 -999
2011-01-14 08:11:27 51°17.855 2°52.495 5.4519 -999 -999 -999
2011-01-14 08:11:32 51°17.873 2°52.491 5.4544 -999 -999 -999
2011-01-14 08:11:37 51°17.892 2°52.488 5.4425 -999 -999 -999
2011-01-14 08:11:42 51°17.91 2°52.484 5.4454 -999 -999 -999
2011-01-14 08:11:47 51°17.929 2°52.482 5.4561 -999 -999 -999
2011-01-14 08:11:52 51°17.947 2°52.479 5.4484 -999 -999 -999
2011-01-14 08:11:57 51°17.966 2°52.477 5.4518 -999 -999 -999
2011-01-14 08:12:02 51°17.985 2°52.475 5.4513 -999 -999 -999
2011-01-14 08:12:07 51°18.003 2°52.472 5.4524 -999 -999 -999
2011-01-14 08:12:12 51°18.022 2°52.471 5.4588 -999 -999 -999
2011-01-14 08:12:17 51°18.041 2°52.467 5.454 -999 -999 -999
2011-01-14 08:12:22 51°18.06 2°52.467 5.4542 -999 -999 -999
2011-01-14 08:12:27 51°18.079 2°52.465 5.4533 -999 -999 -999
2011-01-14 08:12:32 51°18.097 2°52.461 5.4596 -999 -999 -999
2011-01-14 08:12:37 51°18.116 2°52.46 5.4567 -999 -999 -999
2011-01-14 08:12:42 51°18.135 2°52.456 5.4516 -999 -999 -999
2011-01-14 08:12:47 51°18.153 2°52.456 5.4525 -999 -999 -999
2011-01-14 08:12:52 51°18.172 2°52.453 5.4531 -999 -999 -999
2011-01-14 08:12:57 51°18.191 2°52.451 5.4576 -999 -999 -999
2011-01-14 08:13:02 51°18.21 2°52.449 5.4587 -999 -999 -999
2011-01-14 08:13:07 51°18.228 2°52.446 5.4521 -999 -999 -999
2011-01-14 08:13:11 51°18.243 2°52.446 5.4555 -999 -999 -999
2011-01-14 08:13:17 51°18.265 2°52.44 5.4589 -999 -999 -999
2011-01-14 08:13:22 51°18.284 2°52.439 5.4604 -999 -999 -999
2011-01-14 08:13:27 51°18.302 2°52.435 5.4618 -999 -999 -999
2011-01-14 08:13:32 51°18.321 2°52.434 5.4603 -999 -999 -999
2011-01-14 08:13:37 51°18.339 2°52.431 5.4666 -999 -999 -999
2011-01-14 08:13:42 51°18.358 2°52.429 5.4684 -999 -999 -999
2011-01-14 08:13:47 51°18.377 2°52.425 5.4733 -999 -999 -999
2011-01-14 08:13:52 51°18.396 2°52.426 5.4673 -999 -999 -999
2011-01-14 08:13:57 51°18.414 2°52.42 5.4655 -999 -999 -999
2011-01-14 08:14:02 51°18.433 2°52.418 5.4713 -999 -999 -999
2011-01-14 08:14:07 51°18.451 2°52.414 5.4745 -999 -999 -999
2011-01-14 08:14:12 51°18.47 2°52.413 5.4721 -999 -999 -999
2011-01-14 08:14:17 51°18.489 2°52.409 5.4791 -999 -999 -999
2011-01-14 08:14:23 51°18.511 2°52.407 5.4762 -999 -999 -999
2011-01-14 08:14:27 51°18.526 2°52.404 5.4759 -999 -999 -999
2011-01-14 08:14:32 51°18.545 2°52.404 5.4749 -999 -999 -999
2011-01-14 08:14:37 51°18.563 2°52.397 5.4813 -999 -999 -999
2011-01-14 08:14:42 51°18.582 2°52.398 5.4734 -999 -999 -999
2011-01-14 08:14:47 51°18.6 2°52.391 5.4808 -999 -999 -999
2011-01-14 08:14:52 51°18.618 2°52.388 5.4893 -999 -999 -999
2011-01-14 08:14:57 51°18.637 2°52.385 5.4825 -999 -999 -999
2011-01-14 08:15:02 51°18.656 2°52.382 5.4726 -999 -999 -999
2011-01-14 08:15:07 51°18.674 2°52.383 5.4746 -999 -999 -999
2011-01-14 08:15:12 51°18.693 2°52.379 5.4797 -999 -999 -999
2011-01-14 08:15:17 51°18.711 2°52.378 5.4787 -999 -999 -999
2011-01-14 08:15:22 51°18.73 2°52.375 5.4917 -999 -999 -999
2011-01-14 08:15:27 51°18.749 2°52.374 5.494 -999 -999 -999
2011-01-14 08:15:32 51°18.767 2°52.37 5.4817 -999 -999 -999
2011-01-14 08:15:37 51°18.786 2°52.369 5.4946 -999 -999 -999
2011-01-14 08:15:42 51°18.804 2°52.362 5.5043 -999 -999 -999
2011-01-14 08:15:47 51°18.823 2°52.364 5.4854 -999 -999 -999
2011-01-14 08:15:52 51°18.842 2°52.359 5.4886 -999 -999 -999
2011-01-14 08:15:57 51°18.861 2°52.358 5.493 -999 -999 -999
2011-01-14 08:16:02 51°18.879 2°52.352 5.4959 -999 -999 -999
2011-01-14 08:16:07 51°18.898 2°52.353 5.4876 -999 -999 -999
2011-01-14 08:16:11 51°18.913 2°52.35 5.4949 -999 -999 -999
2011-01-14 08:16:17 51°18.936 2°52.348 5.495 -999 -999 -999
2011-01-14 08:16:22 51°18.954 2°52.347 5.4934 -999 -999 -999
2011-01-14 08:16:27 51°18.973 2°52.345 5.4998 -999 -999 -999
2011-01-14 08:16:32 51°18.992 2°52.344 5.4961 -999 -999 -999
2011-01-14 08:16:37 51°19.011 2°52.345 5.4895 -999 -999 -999
2011-01-14 08:16:42 51°19.029 2°52.34 5.5009 -999 -999 -999
2011-01-14 08:16:47 51°19.048 2°52.342 5.4911 -999 -999 -999
2011-01-14 08:16:51 51°19.063 2°52.339 5.492 -999 -999 -999
2011-01-14 08:16:57 51°19.086 2°52.339 5.4878 -999 -999 -999
2011-01-14 08:17:02 51°19.104 2°52.336 5.4962 -999 -999 -999
2011-01-14 08:17:07 51°19.123 2°52.337 5.4931 -999 -999 -999
2011-01-14 08:17:12 51°19.142 2°52.333 5.4872 -999 -999 -999
2011-01-14 08:17:17 51°19.161 2°52.333 5.4818 -999 -999 -999
2011-01-14 08:17:22 51°19.179 2°52.331 5.491 -999 -999 -999
2011-01-14 08:17:27 51°19.199 2°52.331 5.4881 -999 -999 -999
2011-01-14 08:17:32 51°19.217 2°52.326 5.4954 -999 -999 -999
2011-01-14 08:17:37 51°19.236 2°52.327 5.488 -999 -999 -999
2011-01-14 08:17:42 51°19.254 2°52.322 5.4873 -999 -999 -999
2011-01-14 08:17:47 51°19.274 2°52.324 5.4911 -999 -999 -999
2011-01-14 08:17:52 51°19.292 2°52.319 5.4959 -999 -999 -999
2011-01-14 08:17:57 51°19.312 2°52.319 5.4857 -999 -999 -999
2011-01-14 08:18:03 51°19.334 2°52.314 5.5023 -999 -999 -999
2011-01-14 08:18:07 51°19.349 2°52.317 5.4749 -999 -999 -999
2011-01-14 08:18:12 51°19.367 2°52.309 5.4776 -999 -999 -999
2011-01-14 08:18:17 51°19.386 2°52.308 5.4787 -999 -999 -999
2011-01-14 08:18:23 51°19.409 2°52.305 5.476 -999 -999 -999
2011-01-14 08:18:27 51°19.424 2°52.305 5.4688 -999 -999 -999
2011-01-14 08:18:32 51°19.443 2°52.302 5.4677 -999 -999 -999
2011-01-14 08:18:37 51°19.461 2°52.301 5.4706 -999 -999 -999
2011-01-14 08:18:42 51°19.48 2°52.301 5.4703 -999 -999 -999
2011-01-14 08:18:47 51°19.499 2°52.298 5.4632 -999 -999 -999
2011-01-14 08:18:52 51°19.517 2°52.293 5.4688 -999 -999 -999
2011-01-14 08:18:57 51°19.536 2°52.292 5.468 -999 -999 -999
2011-01-14 08:19:02 51°19.554 2°52.288 5.466 -999 -999 -999
2011-01-14 08:19:07 51°19.573 2°52.287 5.4673 -999 -999 -999
2011-01-14 08:19:12 51°19.592 2°52.285 5.4645 -999 -999 -999
2011-01-14 08:19:17 51°19.611 2°52.285 5.4704 -999 -999 -999
2011-01-14 08:19:22 51°19.629 2°52.284 5.4652 -999 -999 -999
2011-01-14 08:19:27 51°19.649 2°52.284 5.456 -999 -999 -999
2011-01-14 08:19:32 51°19.667 2°52.281 5.454 -999 -999 -999
2011-01-14 08:19:37 51°19.686 2°52.28 5.4547 -999 -999 -999
2011-01-14 08:19:42 51°19.705 2°52.278 5.4519 -999 -999 -999
2011-01-14 08:19:47 51°19.724 2°52.278 5.4451 -999 -999 -999
2011-01-14 08:19:52 51°19.743 2°52.274 5.4469 -999 -999 -999
2011-01-14 08:19:57 51°19.761 2°52.272 5.4483 -999 -999 -999
2011-01-14 08:20:02 51°19.78 2°52.272 5.4431 -999 -999 -999
2011-01-14 08:20:07 51°19.798 2°52.267 5.4354 -999 -999 -999
2011-01-14 08:20:12 51°19.817 2°52.266 5.424 -999 -999 -999
2011-01-14 08:20:17 51°19.836 2°52.265 5.4286 -999 -999 -999
2011-01-14 08:20:22 51°19.854 2°52.263 5.4058 -999 -999 -999
2011-01-14 08:20:27 51°19.873 2°52.262 5.4 -999 -999 -999
2011-01-14 08:20:32 51°19.892 2°52.26 5.3894 -999 -999 -999
2011-01-14 08:20:37 51°19.911 2°52.257 5.3878 -999 -999 -999
2011-01-14 08:20:42 51°19.929 2°52.257 5.3713 -999 -999 -999
2011-01-14 08:20:47 51°19.948 2°52.254 5.3615 -999 -999 -999
2011-01-14 08:20:52 51°19.966 2°52.25 5.3542 -999 -999 -999
2011-01-14 08:20:57 51°19.985 2°52.248 5.3605 -999 -999 -999
2011-01-14 08:21:02 51°20.003 2°52.247 5.3477 -999 -999 -999
2011-01-14 08:21:07 51°20.022 2°52.243 5.3342 -999 -999 -999
2011-01-14 08:21:12 51°20.04 2°52.241 5.3401 -999 -999 -999
2011-01-14 08:21:17 51°20.059 2°52.241 5.3335 -999 -999 -999
2011-01-14 08:21:22 51°20.078 2°52.238 5.3333 -999 -999 -999
2011-01-14 08:21:27 51°20.096 2°52.237 5.3357 -999 -999 -999
2011-01-14 08:21:32 51°20.115 2°52.236 5.3366 -999 -999 -999
2011-01-14 08:21:37 51°20.133 2°52.234 5.3289 -999 -999 -999
2011-01-14 08:21:42 51°20.151 2°52.233 5.3434 -999 -999 -999
2011-01-14 08:21:47 51°20.17 2°52.231 5.3207 -999 -999 -999
2011-01-14 08:21:52 51°20.189 2°52.23 5.3171 -999 -999 -999
2011-01-14 08:21:57 51°20.208 2°52.228 5.3228 -999 -999 -999
2011-01-14 08:22:02 51°20.226 2°52.227 5.3163 -999 -999 -999
2011-01-14 08:22:07 51°20.245 2°52.225 5.3054 -999 -999 -999
2011-01-14 08:22:12 51°20.264 2°52.223 5.3064 -999 -999 -999
2011-01-14 08:22:17 51°20.283 2°52.223 5.2987 -999 -999 -999
2011-01-14 08:22:22 51°20.301 2°52.221 5.2893 -999 -999 -999
2011-01-14 08:22:27 51°20.32 2°52.219 5.2916 -999 -999 -999
2011-01-14 08:22:32 51°20.338 2°52.22 5.2809 -999 -999 -999
2011-01-14 08:22:37 51°20.357 2°52.217 5.2819 -999 -999 -999
2011-01-14 08:22:42 51°20.375 2°52.215 5.2758 -999 -999 -999
2011-01-14 08:22:47 51°20.394 2°52.214 5.2671 -999 -999 -999
2011-01-14 08:22:52 51°20.412 2°52.21 5.2724 -999 -999 -999
2011-01-14 08:22:57 51°20.431 2°52.209 5.2653 -999 -999 -999
2011-01-14 08:23:03 51°20.453 2°52.204 5.2615 -999 -999 -999
2011-01-14 08:23:07 51°20.467 2°52.203 5.2654 -999 -999 -999
2011-01-14 08:23:12 51°20.486 2°52.201 5.2625 -999 -999 -999
2011-01-14 08:23:17 51°20.505 2°52.199 5.2561 -999 -999 -999
2011-01-14 08:23:22 51°20.524 2°52.196 5.2661 -999 -999 -999
2011-01-14 08:23:27 51°20.543 2°52.197 5.2584 -999 -999 -999
2011-01-14 08:23:32 51°20.56 2°52.189 5.2574 -999 -999 -999
2011-01-14 08:23:37 51°20.578 2°52.187 5.2605 -999 -999 -999
2011-01-14 08:23:42 51°20.597 2°52.183 5.2506 -999 -999 -999
2011-01-14 08:23:47 51°20.615 2°52.181 5.2503 -999 -999 -999
2011-01-14 08:23:52 51°20.634 2°52.182 5.2441 -999 -999 -999
2011-01-14 08:23:57 51°20.652 2°52.178 5.2475 -999 -999 -999
2011-01-14 08:24:02 51°20.671 2°52.18 5.2506 -999 -999 -999
2011-01-14 08:24:07 51°20.69 2°52.178 5.2512 -999 -999 -999
2011-01-14 08:24:12 51°20.709 2°52.182 5.243 -999 -999 -999
2011-01-14 08:24:17 51°20.727 2°52.181 5.2454 -999 -999 -999
2011-01-14 08:24:22 51°20.745 2°52.182 5.2543 -999 -999 -999
2011-01-14 08:24:27 51°20.764 2°52.185 5.2415 -999 -999 -999
2011-01-14 08:24:32 51°20.783 2°52.185 5.2438 -999 -999 -999
2011-01-14 08:24:37 51°20.802 2°52.189 5.2427 -999 -999 -999
2011-01-14 08:24:42 51°20.821 2°52.189 5.2445 -999 -999 -999
2011-01-14 08:24:47 51°20.84 2°52.193 5.2439 -999 -999 -999
2011-01-14 08:24:52 51°20.859 2°52.193 5.2499 -999 -999 -999
2011-01-14 08:24:57 51°20.877 2°52.196 5.2465 -999 -999 -999
2011-01-14 08:25:03 51°20.9 2°52.196 5.2465 -999 -999 -999
2011-01-14 08:25:07 51°20.915 2°52.2 5.2478 -999 -999 -999
2011-01-14 08:25:12 51°20.933 2°52.201 5.2577 -999 -999 -999
2011-01-14 08:25:17 51°20.952 2°52.203 5.2455 -999 -999 -999
2011-01-14 08:25:22 51°20.97 2°52.207 5.2535 -999 -999 -999
2011-01-14 08:25:27 51°20.989 2°52.207 5.248 -999 -999 -999
2011-01-14 08:25:32 51°21.008 2°52.213 5.2578 -999 -999 -999
2011-01-14 08:25:37 51°21.026 2°52.215 5.2527 -999 -999 -999
2011-01-14 08:25:42 51°21.045 2°52.217 5.2504 -999 -999 -999
2011-01-14 08:25:47 51°21.064 2°52.218 5.2526 -999 -999 -999
2011-01-14 08:25:52 51°21.083 2°52.22 5.2463 -999 -999 -999
2011-01-14 08:25:57 51°21.102 2°52.222 5.2508 -999 -999 -999
2011-01-14 08:26:02 51°21.121 2°52.223 5.2594 -999 -999 -999
2011-01-14 08:26:07 51°21.14 2°52.227 5.2477 -999 -999 -999
2011-01-14 08:26:12 51°21.159 2°52.228 5.2511 -999 -999 -999
2011-01-14 08:26:17 51°21.177 2°52.225 5.2575 -999 -999 -999
2011-01-14 08:26:22 51°21.196 2°52.228 5.263 -999 -999 -999
2011-01-14 08:26:27 51°21.214 2°52.228 5.263 -999 -999 -999
2011-01-14 08:26:32 51°21.233 2°52.23 5.2605 -999 -999 -999
2011-01-14 08:26:37 51°21.251 2°52.23 5.2551 -999 -999 -999
2011-01-14 08:26:42 51°21.27 2°52.232 5.2584 -999 -999 -999
2011-01-14 08:26:47 51°21.289 2°52.233 5.2664 -999 -999 -999
2011-01-14 08:26:52 51°21.308 2°52.235 5.258 -999 -999 -999
2011-01-14 08:26:57 51°21.327 2°52.236 5.2566 -999 -999 -999
2011-01-14 08:27:02 51°21.346 2°52.239 5.2563 -999 -999 -999
2011-01-14 08:27:07 51°21.365 2°52.242 5.2585 -999 -999 -999
2011-01-14 08:27:12 51°21.384 2°52.241 5.2613 -999 -999 -999
2011-01-14 08:27:17 51°21.403 2°52.243 5.2591 -999 -999 -999
2011-01-14 08:27:22 51°21.422 2°52.246 5.2565 -999 -999 -999
2011-01-14 08:27:27 51°21.441 2°52.246 5.2523 -999 -999 -999
2011-01-14 08:27:32 51°21.459 2°52.251 5.2579 -999 -999 -999
2011-01-14 08:27:37 51°21.478 2°52.251 5.2549 -999 -999 -999
2011-01-14 08:27:42 51°21.497 2°52.254 5.2528 -999 -999 -999
2011-01-14 08:27:47 51°21.516 2°52.255 5.266 -999 -999 -999
2011-01-14 08:27:52 51°21.535 2°52.256 5.264 -999 -999 -999
2011-01-14 08:27:57 51°21.555 2°52.258 5.2603 -999 -999 -999
2011-01-14 08:28:02 51°21.573 2°52.26 5.2576 -999 -999 -999
2011-01-14 08:28:07 51°21.593 2°52.261 5.2609 -999 -999 -999
2011-01-14 08:28:12 51°21.612 2°52.265 5.2617 -999 -999 -999
2011-01-14 08:28:17 51°21.631 2°52.267 5.2652 -999 -999 -999
2011-01-14 08:28:22 51°21.65 2°52.27 5.2655 -999 -999 -999
2011-01-14 08:28:27 51°21.669 2°52.272 5.2671 -999 -999 -999
2011-01-14 08:28:32 51°21.689 2°52.273 5.2787 -999 -999 -999
2011-01-14 08:28:37 51°21.708 2°52.278 5.278 -999 -999 -999
2011-01-14 08:28:42 51°21.727 2°52.279 5.2803 -999 -999 -999
2011-01-14 08:28:47 51°21.747 2°52.282 5.2836 -999 -999 -999
2011-01-14 08:28:52 51°21.766 2°52.283 5.2845 -999 -999 -999
2011-01-14 08:28:57 51°21.785 2°52.286 5.2859 -999 -999 -999
2011-01-14 08:29:02 51°21.804 2°52.288 5.2888 -999 -999 -999
2011-01-14 08:29:07 51°21.823 2°52.29 5.2861 -999 -999 -999
2011-01-14 08:29:12 51°21.842 2°52.293 5.2999 -999 -999 -999
2011-01-14 08:29:17 51°21.861 2°52.297 5.288 -999 -999 -999
2011-01-14 08:29:22 51°21.88 2°52.296 5.2864 -999 -999 -999
2011-01-14 08:29:27 51°21.899 2°52.298 5.2865 -999 -999 -999
2011-01-14 08:29:32 51°21.919 2°52.303 5.282 -999 -999 -999
2011-01-14 08:29:37 51°21.938 2°52.299 5.2893 -999 -999 -999
2011-01-14 08:29:43 51°21.96 2°52.301 5.2897 -999 -999 -999
2011-01-14 08:29:47 51°21.975 2°52.299 5.2917 -999 -999 -999
2011-01-14 08:29:52 51°21.994 2°52.3 5.2876 -999 -999 -999
2011-01-14 08:29:57 51°22.013 2°52.3 5.2954 -999 -999 -999
2011-01-14 08:30:03 51°22.035 2°52.303 5.2939 -999 -999 -999
2011-01-14 08:30:07 51°22.051 2°52.303 5.2923 -999 -999 -999
2011-01-14 08:30:12 51°22.07 2°52.305 5.2914 -999 -999 -999
2011-01-14 08:30:17 51°22.089 2°52.307 5.2893 -999 -999 -999
2011-01-14 08:30:22 51°22.108 2°52.311 5.2899 -999 -999 -999
2011-01-14 08:30:27 51°22.127 2°52.31 5.3033 -999 -999 -999
2011-01-14 08:30:32 51°22.146 2°52.314 5.2999 -999 -999 -999
2011-01-14 08:30:37 51°22.165 2°52.316 5.3041 -999 -999 -999
2011-01-14 08:30:42 51°22.184 2°52.317 5.3072 -999 -999 -999
2011-01-14 08:30:47 51°22.203 2°52.321 5.3122 -999 -999 -999
2011-01-14 08:30:52 51°22.222 2°52.324 5.3085 -999 -999 -999
2011-01-14 08:30:57 51°22.242 2°52.325 5.316 -999 -999 -999
2011-01-14 08:31:02 51°22.26 2°52.328 5.3181 -999 -999 -999
2011-01-14 08:31:07 51°22.279 2°52.328 5.3172 -999 -999 -999
2011-01-14 08:31:12 51°22.298 2°52.331 5.3199 -999 -999 -999
2011-01-14 08:31:17 51°22.317 2°52.332 5.3206 -999 -999 -999
2011-01-14 08:31:22 51°22.336 2°52.335 5.3147 -999 -999 -999
2011-01-14 08:31:27 51°22.356 2°52.334 5.3257 -999 -999 -999
2011-01-14 08:31:32 51°22.374 2°52.338 5.3195 -999 -999 -999
2011-01-14 08:31:37 51°22.394 2°52.336 5.3264 -999 -999 -999
2011-01-14 08:31:42 51°22.413 2°52.338 5.32 -999 -999 -999
2011-01-14 08:31:47 51°22.432 2°52.338 5.3238 -999 -999 -999
2011-01-14 08:31:52 51°22.45 2°52.34 5.3194 -999 -999 -999
2011-01-14 08:31:57 51°22.47 2°52.341 5.3145 -999 -999 -999
2011-01-14 08:32:03 51°22.493 2°52.343 5.3115 -999 -999 -999
2011-01-14 08:32:07 51°22.508 2°52.344 5.3108 -999 -999 -999
2011-01-14 08:32:12 51°22.527 2°52.348 5.3023 -999 -999 -999
2011-01-14 08:32:17 51°22.546 2°52.345 5.3129 -999 -999 -999
2011-01-14 08:32:22 51°22.565 2°52.35 5.3091 -999 -999 -999
2011-01-14 08:32:27 51°22.585 2°52.349 5.3102 -999 -999 -999
2011-01-14 08:32:32 51°22.604 2°52.348 5.3084 -999 -999 -999
2011-01-14 08:32:37 51°22.623 2°52.35 5.2975 -999 -999 -999
2011-01-14 08:32:42 51°22.642 2°52.352 5.3024 -999 -999 -999
2011-01-14 08:32:47 51°22.66 2°52.351 5.3002 -999 -999 -999
2011-01-14 08:32:52 51°22.68 2°52.353 5.2848 -999 -999 -999
2011-01-14 08:32:57 51°22.698 2°52.353 5.2839 -999 -999 -999
2011-01-14 08:33:02 51°22.717 2°52.352 5.2827 -999 -999 -999
2011-01-14 08:33:07 51°22.736 2°52.354 5.2844 -999 -999 -999
2011-01-14 08:33:12 51°22.755 2°52.355 5.2765 -999 -999 -999
2011-01-14 08:33:17 51°22.773 2°52.355 5.2719 -999 -999 -999
2011-01-14 08:33:22 51°22.792 2°52.359 5.271 -999 -999 -999
2011-01-14 08:33:27 51°22.811 2°52.356 5.2661 -999 -999 -999
2011-01-14 08:33:32 51°22.83 2°52.362 5.2608 -999 -999 -999
2011-01-14 08:33:37 51°22.85 2°52.359 5.2599 -999 -999 -999
2011-01-14 08:33:43 51°22.872 2°52.36 5.2398 -999 -999 -999
2011-01-14 08:33:47 51°22.887 2°52.359 5.2434 -999 -999 -999
2011-01-14 08:33:52 51°22.906 2°52.356 5.2411 -999 -999 -999
2011-01-14 08:33:57 51°22.924 2°52.357 5.2344 -999 -999 -999
2011-01-14 08:34:03 51°22.947 2°52.356 5.2302 -999 -999 -999
2011-01-14 08:34:07 51°22.962 2°52.355 5.226 -999 -999 -999
2011-01-14 08:34:12 51°22.981 2°52.353 5.2228 -999 -999 -999
2011-01-14 08:34:17 51°23 2°52.354 5.2306 -999 -999 -999
2011-01-14 08:34:22 51°23.019 2°52.357 5.2227 -999 -999 -999
2011-01-14 08:34:27 51°23.038 2°52.355 5.2198 -999 -999 -999
2011-01-14 08:34:32 51°23.056 2°52.355 5.2316 -999 -999 -999
2011-01-14 08:34:37 51°23.075 2°52.353 5.2395 -999 -999 -999
2011-01-14 08:34:42 51°23.094 2°52.357 5.2335 -999 -999 -999
2011-01-14 08:34:47 51°23.113 2°52.354 5.2343 -999 -999 -999
2011-01-14 08:34:52 51°23.132 2°52.354 5.2472 -999 -999 -999
2011-01-14 08:34:57 51°23.151 2°52.353 5.2467 -999 -999 -999
2011-01-14 08:35:02 51°23.17 2°52.357 5.2404 -999 -999 -999
2011-01-14 08:35:07 51°23.189 2°52.356 5.2391 -999 -999 -999
2011-01-14 08:35:12 51°23.208 2°52.355 5.2462 -999 -999 -999
2011-01-14 08:35:17 51°23.227 2°52.358 5.2512 -999 -999 -999
2011-01-14 08:35:22 51°23.246 2°52.36 5.2569 -999 -999 -999
2011-01-14 08:35:27 51°23.265 2°52.358 5.2641 -999 -999 -999
2011-01-14 08:35:32 51°23.284 2°52.363 5.2684 -999 -999 -999
2011-01-14 08:35:37 51°23.303 2°52.363 5.2743 -999 -999 -999
2011-01-14 08:35:43 51°23.326 2°52.369 5.2754 -999 -999 -999
2011-01-14 08:35:47 51°23.341 2°52.365 5.2829 -999 -999 -999
2011-01-14 08:35:52 51°23.36 2°52.371 5.2871 -999 -999 -999
2011-01-14 08:35:57 51°23.379 2°52.369 5.2936 -999 -999 -999
2011-01-14 08:36:02 51°23.398 2°52.373 5.2943 -999 -999 -999
2011-01-14 08:36:07 51°23.417 2°52.372 5.2988 -999 -999 -999
2011-01-14 08:36:12 51°23.436 2°52.377 5.3011 -999 -999 -999
2011-01-14 08:36:17 51°23.455 2°52.378 5.3043 -999 -999 -999
2011-01-14 08:36:22 51°23.475 2°52.382 5.3062 -999 -999 -999
2011-01-14 08:36:27 51°23.493 2°52.384 5.3114 -999 -999 -999
2011-01-14 08:36:31 51°23.509 2°52.389 5.3123 -999 -999 -999
2011-01-14 08:36:37 51°23.532 2°52.387 5.3226 -999 -999 -999
2011-01-14 08:36:42 51°23.551 2°52.394 5.3159 -999 -999 -999
2011-01-14 08:36:47 51°23.57 2°52.392 5.3227 -999 -999 -999
2011-01-14 08:36:52 51°23.589 2°52.395 5.3235 -999 -999 -999
2011-01-14 08:36:57 51°23.608 2°52.395 5.3284 -999 -999 -999
2011-01-14 08:37:02 51°23.627 2°52.4 5.3246 -999 -999 -999
2011-01-14 08:37:07 51°23.646 2°52.399 5.3314 -999 -999 -999
2011-01-14 08:37:11 51°23.661 2°52.402 5.3286 -999 -999 -999
2011-01-14 08:37:17 51°23.684 2°52.405 5.3333 -999 -999 -999
2011-01-14 08:37:22 51°23.703 2°52.405 5.3333 -999 -999 -999
2011-01-14 08:37:27 51°23.722 2°52.407 5.3408 -999 -999 -999
2011-01-14 08:37:32 51°23.741 2°52.412 5.3391 -999 -999 -999
2011-01-14 08:37:37 51°23.76 2°52.409 5.3432 -999 -999 -999
2011-01-14 08:37:42 51°23.779 2°52.41 5.3501 -999 -999 -999
2011-01-14 08:37:47 51°23.798 2°52.412 5.3558 -999 -999 -999
2011-01-14 08:37:52 51°23.817 2°52.415 5.3501 -999 -999 -999
2011-01-14 08:37:57 51°23.836 2°52.413 5.3495 -999 -999 -999
2011-01-14 08:38:02 51°23.854 2°52.412 5.3538 -999 -999 -999
2011-01-14 08:38:07 51°23.873 2°52.41 5.365 -999 -999 -999
2011-01-14 08:38:12 51°23.892 2°52.412 5.3609 -999 -999 -999
2011-01-14 08:38:17 51°23.911 2°52.411 5.3648 -999 -999 -999
2011-01-14 08:38:23 51°23.934 2°52.411 5.3666 -999 -999 -999
2011-01-14 08:38:27 51°23.949 2°52.411 5.3717 -999 -999 -999
2011-01-14 08:38:32 51°23.968 2°52.411 5.3731 -999 -999 -999
2011-01-14 08:38:37 51°23.987 2°52.413 5.3791 -999 -999 -999
2011-01-14 08:38:43 51°24.009 2°52.406 5.3841 -999 -999 -999
2011-01-14 08:38:47 51°24.024 2°52.405 5.3853 -999 -999 -999
2011-01-14 08:38:52 51°24.042 2°52.404 5.3893 -999 -999 -999
2011-01-14 08:38:57 51°24.061 2°52.401 5.3932 -999 -999 -999
2011-01-14 08:39:02 51°24.08 2°52.404 5.3896 -999 -999 -999
2011-01-14 08:39:07 51°24.098 2°52.399 5.39 -999 -999 -999
2011-01-14 08:39:12 51°24.117 2°52.403 5.3954 -999 -999 -999
2011-01-14 08:39:17 51°24.136 2°52.399 5.4084 -999 -999 -999
2011-01-14 08:39:22 51°24.155 2°52.406 5.3919 -999 -999 -999
2011-01-14 08:39:27 51°24.174 2°52.401 5.3925 -999 -999 -999
2011-01-14 08:39:32 51°24.192 2°52.401 5.3934 -999 -999 -999
2011-01-14 08:39:37 51°24.211 2°52.4 5.3954 -999 -999 -999
2011-01-14 08:39:42 51°24.229 2°52.402 5.3843 -999 -999 -999
2011-01-14 08:39:47 51°24.248 2°52.403 5.3861 -999 -999 -999
2011-01-14 08:39:52 51°24.267 2°52.405 5.3828 -999 -999 -999
2011-01-14 08:39:57 51°24.285 2°52.408 5.3854 -999 -999 -999
2011-01-14 08:40:02 51°24.304 2°52.406 5.386 -999 -999 -999
2011-01-14 08:40:07 51°24.323 2°52.409 5.3864 -999 -999 -999
2011-01-14 08:40:12 51°24.342 2°52.409 5.3851 -999 -999 -999
2011-01-14 08:40:17 51°24.36 2°52.413 5.3756 -999 -999 -999
2011-01-14 08:40:22 51°24.379 2°52.414 5.3781 -999 -999 -999
2011-01-14 08:40:27 51°24.398 2°52.417 5.3715 -999 -999 -999
2011-01-14 08:40:32 51°24.417 2°52.421 5.382 -999 -999 -999
2011-01-14 08:40:37 51°24.435 2°52.419 5.385 -999 -999 -999
2011-01-14 08:40:42 51°24.454 2°52.424 5.3765 -999 -999 -999
2011-01-14 08:40:47 51°24.473 2°52.424 5.3763 -999 -999 -999
2011-01-14 08:40:51 51°24.488 2°52.423 5.3737 -999 -999 -999
2011-01-14 08:40:57 51°24.511 2°52.427 5.3674 -999 -999 -999
2011-01-14 08:41:02 51°24.53 2°52.429 5.3646 -999 -999 -999
2011-01-14 08:41:07 51°24.549 2°52.429 5.3646 -999 -999 -999
2011-01-14 08:41:12 51°24.567 2°52.431 5.3758 -999 -999 -999
2011-01-14 08:41:17 51°24.586 2°52.437 5.3545 -999 -999 -999
2011-01-14 08:41:22 51°24.605 2°52.433 5.3508 -999 -999 -999
2011-01-14 08:41:27 51°24.623 2°52.431 5.3519 -999 -999 -999
2011-01-14 08:41:32 51°24.642 2°52.433 5.3517 -999 -999 -999
2011-01-14 08:41:37 51°24.661 2°52.433 5.3494 -999 -999 -999
2011-01-14 08:41:42 51°24.681 2°52.434 5.3472 -999 -999 -999
2011-01-14 08:41:47 51°24.699 2°52.431 5.3505 -999 -999 -999
2011-01-14 08:41:52 51°24.719 2°52.433 5.3427 -999 -999 -999
2011-01-14 08:41:57 51°24.738 2°52.433 5.3398 -999 -999 -999
2011-01-14 08:42:02 51°24.757 2°52.433 5.3409 -999 -999 -999
2011-01-14 08:42:07 51°24.776 2°52.438 5.3348 -999 -999 -999
2011-01-14 08:42:12 51°24.795 2°52.437 5.3319 -999 -999 -999
2011-01-14 08:42:17 51°24.814 2°52.44 5.3292 -999 -999 -999
2011-01-14 08:42:22 51°24.832 2°52.442 5.3292 -999 -999 -999
2011-01-14 08:42:27 51°24.851 2°52.447 5.3239 -999 -999 -999
2011-01-14 08:42:32 51°24.871 2°52.446 5.3258 -999 -999 -999
2011-01-14 08:42:37 51°24.89 2°52.449 5.3282 -999 -999 -999
2011-01-14 08:42:42 51°24.908 2°52.452 5.3354 -999 -999 -999
2011-01-14 08:42:47 51°24.927 2°52.456 5.3245 -999 -999 -999
2011-01-14 08:42:52 51°24.946 2°52.454 5.3314 -999 -999 -999
2011-01-14 08:42:57 51°24.965 2°52.458 5.3279 -999 -999 -999
2011-01-14 08:43:02 51°24.984 2°52.46 5.3208 -999 -999 -999
2011-01-14 08:43:07 51°25.003 2°52.461 5.3282 -999 -999 -999
2011-01-14 08:43:12 51°25.022 2°52.464 5.3269 -999 -999 -999
2011-01-14 08:43:17 51°25.041 2°52.465 5.325 -999 -999 -999
2011-01-14 08:43:22 51°25.06 2°52.467 5.3291 -999 -999 -999
2011-01-14 08:43:27 51°25.078 2°52.47 5.3309 -999 -999 -999
2011-01-14 08:43:32 51°25.097 2°52.471 5.325 -999 -999 -999
2011-01-14 08:43:37 51°25.116 2°52.473 5.3299 -999 -999 -999
2011-01-14 08:43:42 51°25.135 2°52.473 5.3333 -999 -999 -999
2011-01-14 08:43:47 51°25.154 2°52.477 5.328 -999 -999 -999
2011-01-14 08:43:52 51°25.173 2°52.48 5.3278 -999 -999 -999
2011-01-14 08:43:57 51°25.191 2°52.48 5.3243 -999 -999 -999
2011-01-14 08:44:02 51°25.211 2°52.486 5.3303 -999 -999 -999
2011-01-14 08:44:07 51°25.23 2°52.485 5.3233 -999 -999 -999
2011-01-14 08:44:12 51°25.249 2°52.488 5.3214 -999 -999 -999
2011-01-14 08:44:17 51°25.268 2°52.49 5.321 -999 -999 -999
2011-01-14 08:44:22 51°25.287 2°52.492 5.318 -999 -999 -999
2011-01-14 08:44:27 51°25.306 2°52.497 5.3246 -999 -999 -999
2011-01-14 08:44:32 51°25.325 2°52.496 5.3256 -999 -999 -999
2011-01-14 08:44:37 51°25.344 2°52.5 5.3251 -999 -999 -999
2011-01-14 08:44:42 51°25.364 2°52.499 5.3239 -999 -999 -999
2011-01-14 08:44:47 51°25.382 2°52.498 5.3226 -999 -999 -999
2011-01-14 08:44:51 51°25.398 2°52.502 5.3201 -999 -999 -999
2011-01-14 08:44:57 51°25.42 2°52.496 5.3205 -999 -999 -999
2011-01-14 08:45:02 51°25.438 2°52.5 5.326 -999 -999 -999
2011-01-14 08:45:07 51°25.457 2°52.494 5.345 -999 -999 -999
2011-01-14 08:45:12 51°25.476 2°52.498 5.3255 -999 -999 -999
2011-01-14 08:45:17 51°25.494 2°52.496 5.327 -999 -999 -999
2011-01-14 08:45:22 51°25.513 2°52.499 5.3272 -999 -999 -999
2011-01-14 08:45:27 51°25.533 2°52.501 5.3291 -999 -999 -999
2011-01-14 08:45:33 51°25.555 2°52.505 5.3374 -999 -999 -999
2011-01-14 08:45:38 51°25.574 2°52.508 5.3293 -999 -999 -999
2011-01-14 08:45:42 51°25.589 2°52.505 5.3463 -999 -999 -999
2011-01-14 08:45:47 51°25.608 2°52.511 5.3302 -999 -999 -999
2011-01-14 08:45:52 51°25.626 2°52.507 5.3359 -999 -999 -999
2011-01-14 08:45:57 51°25.645 2°52.511 5.3263 -999 -999 -999
2011-01-14 08:46:02 51°25.664 2°52.509 5.3281 -999 -999 -999
2011-01-14 08:46:07 51°25.683 2°52.514 5.3271 -999 -999 -999
2011-01-14 08:46:12 51°25.703 2°52.509 5.3385 -999 -999 -999
2011-01-14 08:46:17 51°25.721 2°52.514 5.3275 -999 -999 -999
2011-01-14 08:46:22 51°25.74 2°52.514 5.3296 -999 -999 -999
2011-01-14 08:46:27 51°25.759 2°52.516 5.3219 -999 -999 -999
2011-01-14 08:46:32 51°25.778 2°52.52 5.3203 -999 -999 -999
2011-01-14 08:46:37 51°25.797 2°52.52 5.325 -999 -999 -999
2011-01-14 08:46:42 51°25.816 2°52.525 5.3261 -999 -999 -999
2011-01-14 08:46:47 51°25.835 2°52.522 5.3223 -999 -999 -999
2011-01-14 08:46:52 51°25.854 2°52.522 5.3305 -999 -999 -999
2011-01-14 08:46:57 51°25.873 2°52.521 5.3437 -999 -999 -999
2011-01-14 08:47:02 51°25.891 2°52.52 5.3434 -999 -999 -999
2011-01-14 08:47:07 51°25.91 2°52.523 5.3256 -999 -999 -999
2011-01-14 08:47:11 51°25.925 2°52.521 5.3245 -999 -999 -999
2011-01-14 08:47:17 51°25.947 2°52.521 5.3249 -999 -999 -999
2011-01-14 08:47:22 51°25.966 2°52.52 5.3269 -999 -999 -999
2011-01-14 08:47:27 51°25.986 2°52.522 5.3235 -999 -999 -999
2011-01-14 08:47:32 51°26.004 2°52.521 5.3249 -999 -999 -999
2011-01-14 08:47:37 51°26.023 2°52.523 5.324 -999 -999 -999
2011-01-14 08:47:42 51°26.042 2°52.524 5.3225 -999 -999 -999
2011-01-14 08:47:47 51°26.061 2°52.526 5.3193 -999 -999 -999
2011-01-14 08:47:52 51°26.08 2°52.525 5.3301 -999 -999 -999
2011-01-14 08:47:57 51°26.1 2°52.529 5.3211 -999 -999 -999
2011-01-14 08:48:02 51°26.118 2°52.525 5.3275 -999 -999 -999
2011-01-14 08:48:07 51°26.137 2°52.527 5.3188 -999 -999 -999
2011-01-14 08:48:12 51°26.157 2°52.527 5.3167 -999 -999 -999
2011-01-14 08:48:17 51°26.175 2°52.524 5.3228 -999 -999 -999
2011-01-14 08:48:22 51°26.194 2°52.527 5.312 -999 -999 -999
2011-01-14 08:48:27 51°26.213 2°52.523 5.3233 -999 -999 -999
2011-01-14 08:48:32 51°26.232 2°52.525 5.3207 -999 -999 -999
2011-01-14 08:48:37 51°26.25 2°52.525 5.3227 -999 -999 -999
2011-01-14 08:48:42 51°26.269 2°52.526 5.3152 -999 -999 -999
2011-01-14 08:48:47 51°26.288 2°52.525 5.3136 -999 -999 -999
2011-01-14 08:48:52 51°26.307 2°52.522 5.3232 -999 -999 -999
2011-01-14 08:48:57 51°26.326 2°52.525 5.316 -999 -999 -999
2011-01-14 08:49:02 51°26.344 2°52.519 5.3219 -999 -999 -999
2011-01-14 08:49:07 51°26.363 2°52.52 5.3302 -999 -999 -999
2011-01-14 08:49:12 51°26.381 2°52.515 5.3331 -999 -999 -999
2011-01-14 08:49:17 51°26.4 2°52.517 5.3089 -999 -999 -999
2011-01-14 08:49:22 51°26.418 2°52.513 5.3135 -999 -999 -999
2011-01-14 08:49:27 51°26.437 2°52.516 5.3126 -999 -999 -999
2011-01-14 08:49:32 51°26.455 2°52.511 5.3365 -999 -999 -999
2011-01-14 08:49:37 51°26.475 2°52.515 5.3148 -999 -999 -999
2011-01-14 08:49:42 51°26.493 2°52.509 5.3177 -999 -999 -999
2011-01-14 08:49:47 51°26.511 2°52.507 5.3232 -999 -999 -999
2011-01-14 08:49:52 51°26.53 2°52.505 5.3126 -999 -999 -999
2011-01-14 08:49:57 51°26.549 2°52.504 5.3124 -999 -999 -999
2011-01-14 08:50:02 51°26.567 2°52.499 5.3175 -999 -999 -999
2011-01-14 08:50:07 51°26.586 2°52.5 5.3233 -999 -999 -999
2011-01-14 08:50:12 51°26.605 2°52.498 5.3273 -999 -999 -999
2011-01-14 08:50:17 51°26.624 2°52.499 5.322 -999 -999 -999
2011-01-14 08:50:22 51°26.643 2°52.498 5.3232 -999 -999 -999
2011-01-14 08:50:27 51°26.662 2°52.5 5.3245 -999 -999 -999
2011-01-14 08:50:32 51°26.681 2°52.501 5.3228 -999 -999 -999
2011-01-14 08:50:37 51°26.7 2°52.499 5.336 -999 -999 -999
2011-01-14 08:50:42 51°26.719 2°52.506 5.3378 -999 -999 -999
2011-01-14 08:50:47 51°26.737 2°52.502 5.3444 -999 -999 -999
2011-01-14 08:50:52 51°26.757 2°52.505 5.3409 -999 -999 -999
2011-01-14 08:50:57 51°26.775 2°52.501 5.3602 -999 -999 -999
2011-01-14 08:51:02 51°26.794 2°52.501 5.3571 -999 -999 -999
2011-01-14 08:51:07 51°26.812 2°52.499 5.3588 -999 -999 -999
2011-01-14 08:51:12 51°26.831 2°52.502 5.3572 -999 -999 -999
2011-01-14 08:51:17 51°26.849 2°52.5 5.357 -999 -999 -999
2011-01-14 08:51:22 51°26.868 2°52.501 5.3625 -999 -999 -999
2011-01-14 08:51:27 51°26.887 2°52.502 5.3687 -999 -999 -999
2011-01-14 08:51:32 51°26.906 2°52.503 5.3697 -999 -999 -999
2011-01-14 08:51:37 51°26.925 2°52.503 5.3729 -999 -999 -999
2011-01-14 08:51:42 51°26.944 2°52.505 5.3782 -999 -999 -999
2011-01-14 08:51:47 51°26.963 2°52.506 5.3803 -999 -999 -999
2011-01-14 08:51:52 51°26.982 2°52.508 5.3829 -999 -999 -999
2011-01-14 08:51:57 51°27.001 2°52.506 5.3909 -999 -999 -999
2011-01-14 08:52:02 51°27.02 2°52.508 5.3949 -999 -999 -999
2011-01-14 08:52:07 51°27.039 2°52.506 5.3983 -999 -999 -999
2011-01-14 08:52:12 51°27.059 2°52.507 5.4015 -999 -999 -999
2011-01-14 08:52:17 51°27.078 2°52.508 5.4067 -999 -999 -999
2011-01-14 08:52:22 51°27.096 2°52.513 5.4013 -999 -999 -999
2011-01-14 08:52:27 51°27.115 2°52.518 5.4091 -999 -999 -999
2011-01-14 08:52:32 51°27.134 2°52.521 5.4192 -999 -999 -999
2011-01-14 08:52:37 51°27.153 2°52.53 5.4061 -999 -999 -999
2011-01-14 08:52:42 51°27.172 2°52.533 5.4056 -999 -999 -999
2011-01-14 08:52:47 51°27.191 2°52.536 5.4108 -999 -999 -999
2011-01-14 08:52:52 51°27.209 2°52.543 5.4162 -999 -999 -999
2011-01-14 08:52:57 51°27.228 2°52.547 5.4156 -999 -999 -999
2011-01-14 08:53:02 51°27.247 2°52.555 5.4146 -999 -999 -999
2011-01-14 08:53:07 51°27.266 2°52.56 5.4224 -999 -999 -999
2011-01-14 08:53:12 51°27.285 2°52.566 5.4236 -999 -999 -999
2011-01-14 08:53:17 51°27.303 2°52.574 5.4242 -999 -999 -999
2011-01-14 08:53:22 51°27.322 2°52.583 5.4272 -999 -999 -999
2011-01-14 08:53:27 51°27.342 2°52.586 5.4292 -999 -999 -999
2011-01-14 08:53:31 51°27.356 2°52.592 5.4398 -999 -999 -999
2011-01-14 08:53:37 51°27.379 2°52.596 5.4392 -999 -999 -999
2011-01-14 08:53:42 51°27.398 2°52.605 5.437 -999 -999 -999
2011-01-14 08:53:47 51°27.416 2°52.608 5.4446 -999 -999 -999
2011-01-14 08:53:52 51°27.435 2°52.614 5.4381 -999 -999 -999
2011-01-14 08:53:57 51°27.454 2°52.621 5.4375 -999 -999 -999
2011-01-14 08:54:02 51°27.473 2°52.629 5.44 -999 -999 -999
2011-01-14 08:54:07 51°27.491 2°52.637 5.4426 -999 -999 -999
2011-01-14 08:54:11 51°27.505 2°52.644 5.4395 -999 -999 -999
2011-01-14 08:54:17 51°27.529 2°52.657 5.4371 -999 -999 -999
2011-01-14 08:54:22 51°27.547 2°52.653 5.4456 -999 -999 -999
2011-01-14 08:54:27 51°27.566 2°52.662 5.4475 -999 -999 -999
2011-01-14 08:54:32 51°27.586 2°52.663 5.4526 -999 -999 -999
2011-01-14 08:54:37 51°27.605 2°52.673 5.4474 -999 -999 -999
2011-01-14 08:54:42 51°27.624 2°52.673 5.4572 -999 -999 -999
2011-01-14 08:54:47 51°27.643 2°52.682 5.4515 -999 -999 -999
2011-01-14 08:54:51 51°27.658 2°52.682 5.4577 -999 -999 -999
2011-01-14 08:54:57 51°27.681 2°52.688 5.443 -999 -999 -999
2011-01-14 08:55:02 51°27.701 2°52.694 5.4442 -999 -999 -999
2011-01-14 08:55:07 51°27.72 2°52.693 5.4434 -999 -999 -999
2011-01-14 08:55:12 51°27.739 2°52.699 5.4416 -999 -999 -999
2011-01-14 08:55:17 51°27.758 2°52.698 5.4455 -999 -999 -999
2011-01-14 08:55:22 51°27.776 2°52.701 5.4376 -999 -999 -999
2011-01-14 08:55:27 51°27.795 2°52.705 5.4352 -999 -999 -999
2011-01-14 08:55:32 51°27.815 2°52.71 5.437 -999 -999 -999
2011-01-14 08:55:37 51°27.834 2°52.712 5.4419 -999 -999 -999
2011-01-14 08:55:42 51°27.852 2°52.721 5.4363 -999 -999 -999
2011-01-14 08:55:47 51°27.872 2°52.725 5.4276 -999 -999 -999
2011-01-14 08:55:52 51°27.891 2°52.726 5.4279 -999 -999 -999
2011-01-14 08:55:57 51°27.909 2°52.73 5.4362 -999 -999 -999
2011-01-14 08:56:02 51°27.929 2°52.735 5.4301 -999 -999 -999
2011-01-14 08:56:07 51°27.948 2°52.732 5.4261 -999 -999 -999
2011-01-14 08:56:12 51°27.966 2°52.734 5.4177 -999 -999 -999
2011-01-14 08:56:17 51°27.986 2°52.737 5.4167 -999 -999 -999
2011-01-14 08:56:22 51°28.005 2°52.735 5.4245 -999 -999 -999
2011-01-14 08:56:27 51°28.023 2°52.74 5.4245 -999 -999 -999
2011-01-14 08:56:32 51°28.042 2°52.743 5.4082 -999 -999 -999
2011-01-14 08:56:37 51°28.061 2°52.741 5.4116 -999 -999 -999
2011-01-14 08:56:42 51°28.08 2°52.743 5.4167 -999 -999 -999
2011-01-14 08:56:47 51°28.099 2°52.742 5.4164 -999 -999 -999
2011-01-14 08:56:52 51°28.118 2°52.748 5.4067 -999 -999 -999
2011-01-14 08:56:57 51°28.136 2°52.745 5.423 -999 -999 -999
2011-01-14 08:57:02 51°28.155 2°52.748 5.397 -999 -999 -999
2011-01-14 08:57:07 51°28.174 2°52.749 5.3897 -999 -999 -999
2011-01-14 08:57:12 51°28.193 2°52.75 5.3819 -999 -999 -999
2011-01-14 08:57:17 51°28.212 2°52.753 5.3773 -999 -999 -999
2011-01-14 08:57:22 51°28.231 2°52.755 5.3791 -999 -999 -999
2011-01-14 08:57:27 51°28.25 2°52.755 5.3729 -999 -999 -999
2011-01-14 08:57:32 51°28.269 2°52.759 5.375 -999 -999 -999
2011-01-14 08:57:37 51°28.288 2°52.757 5.3766 -999 -999 -999
2011-01-14 08:57:42 51°28.306 2°52.759 5.382 -999 -999 -999
2011-01-14 08:57:47 51°28.325 2°52.76 5.366 -999 -999 -999
2011-01-14 08:57:52 51°28.343 2°52.76 5.3593 -999 -999 -999
2011-01-14 08:57:57 51°28.363 2°52.766 5.3538 -999 -999 -999
2011-01-14 08:58:02 51°28.381 2°52.761 5.3532 -999 -999 -999
2011-01-14 08:58:07 51°28.399 2°52.767 5.3559 -999 -999 -999
2011-01-14 08:58:12 51°28.418 2°52.763 5.3641 -999 -999 -999
2011-01-14 08:58:17 51°28.437 2°52.77 5.3365 -999 -999 -999
2011-01-14 08:58:22 51°28.455 2°52.768 5.3346 -999 -999 -999
2011-01-14 08:58:27 51°28.475 2°52.773 5.3362 -999 -999 -999
2011-01-14 08:58:32 51°28.493 2°52.764 5.3513 -999 -999 -999
2011-01-14 08:58:37 51°28.511 2°52.768 5.3344 -999 -999 -999
2011-01-14 08:58:42 51°28.53 2°52.766 5.3253 -999 -999 -999
2011-01-14 08:58:47 51°28.549 2°52.767 5.3153 -999 -999 -999
2011-01-14 08:58:52 51°28.568 2°52.77 5.3107 -999 -999 -999
2011-01-14 08:58:57 51°28.586 2°52.767 5.313 -999 -999 -999
2011-01-14 08:59:02 51°28.605 2°52.77 5.3135 -999 -999 -999
2011-01-14 08:59:07 51°28.623 2°52.773 5.3153 -999 -999 -999
2011-01-14 08:59:12 51°28.642 2°52.775 5.3039 -999 -999 -999
2011-01-14 08:59:17 51°28.66 2°52.777 5.3032 -999 -999 -999
2011-01-14 08:59:22 51°28.679 2°52.778 5.3143 -999 -999 -999
2011-01-14 08:59:27 51°28.697 2°52.783 5.2935 -999 -999 -999
2011-01-14 08:59:32 51°28.716 2°52.787 5.2933 -999 -999 -999
2011-01-14 08:59:37 51°28.734 2°52.789 5.2897 -999 -999 -999
2011-01-14 08:59:42 51°28.753 2°52.792 5.289 -999 -999 -999
2011-01-14 08:59:47 51°28.772 2°52.793 5.2946 -999 -999 -999
2011-01-14 08:59:52 51°28.79 2°52.797 5.2908 -999 -999 -999
2011-01-14 08:59:57 51°28.809 2°52.795 5.2951 -999 -999 -999
2011-01-14 09:00:02 51°28.828 2°52.794 5.3006 -999 -999 -999
2011-01-14 09:00:07 51°28.847 2°52.796 5.3026 -999 -999 -999
2011-01-14 09:00:12 51°28.865 2°52.792 5.2962 -999 -999 -999
2011-01-14 09:00:17 51°28.884 2°52.79 5.2975 -999 -999 -999
2011-01-14 09:00:22 51°28.903 2°52.787 5.303 -999 -999 -999
2011-01-14 09:00:27 51°28.921 2°52.784 5.3012 -999 -999 -999
2011-01-14 09:00:32 51°28.94 2°52.781 5.3008 -999 -999 -999
2011-01-14 09:00:37 51°28.959 2°52.777 5.3048 -999 -999 -999
2011-01-14 09:00:42 51°28.977 2°52.771 5.3024 -999 -999 -999
2011-01-14 09:00:47 51°28.996 2°52.768 5.305 -999 -999 -999
2011-01-14 09:00:52 51°29.014 2°52.761 5.3062 -999 -999 -999
2011-01-14 09:00:57 51°29.033 2°52.755 5.306 -999 -999 -999
2011-01-14 09:01:02 51°29.051 2°52.75 5.3047 -999 -999 -999
2011-01-14 09:01:07 51°29.07 2°52.746 5.3064 -999 -999 -999
2011-01-14 09:01:12 51°29.089 2°52.74 5.3027 -999 -999 -999
2011-01-14 09:01:17 51°29.108 2°52.737 5.3051 -999 -999 -999
2011-01-14 09:01:22 51°29.125 2°52.729 5.3061 -999 -999 -999
2011-01-14 09:01:27 51°29.143 2°52.721 5.3083 -999 -999 -999
2011-01-14 09:01:32 51°29.161 2°52.719 5.3115 -999 -999 -999
2011-01-14 09:01:37 51°29.18 2°52.712 5.3063 -999 -999 -999
2011-01-14 09:01:42 51°29.197 2°52.706 5.3067 -999 -999 -999
2011-01-14 09:01:47 51°29.216 2°52.703 5.3049 -999 -999 -999
2011-01-14 09:01:52 51°29.233 2°52.694 5.308 -999 -999 -999
2011-01-14 09:01:57 51°29.251 2°52.687 5.3064 -999 -999 -999
2011-01-14 09:02:02 51°29.269 2°52.681 5.31 -999 -999 -999
2011-01-14 09:02:07 51°29.286 2°52.672 5.3068 -999 -999 -999
2011-01-14 09:02:11 51°29.302 2°52.671 5.3086 -999 -999 -999
2011-01-14 09:02:17 51°29.322 2°52.66 5.3083 -999 -999 -999
2011-01-14 09:02:22 51°29.341 2°52.656 5.3027 -999 -999 -999
2011-01-14 09:02:27 51°29.359 2°52.648 5.3097 -999 -999 -999
2011-01-14 09:02:32 51°29.377 2°52.643 5.3085 -999 -999 -999
2011-01-14 09:02:37 51°29.396 2°52.637 5.3149 -999 -999 -999
2011-01-14 09:02:42 51°29.415 2°52.632 5.3135 -999 -999 -999
2011-01-14 09:02:47 51°29.433 2°52.624 5.3179 -999 -999 -999
2011-01-14 09:02:51 51°29.448 2°52.622 5.316 -999 -999 -999
2011-01-14 09:02:57 51°29.47 2°52.615 5.3186 -999 -999 -999
2011-01-14 09:03:02 51°29.489 2°52.611 5.3178 -999 -999 -999
2011-01-14 09:03:07 51°29.507 2°52.605 5.3236 -999 -999 -999
2011-01-14 09:03:12 51°29.526 2°52.602 5.3214 -999 -999 -999
2011-01-14 09:03:17 51°29.544 2°52.599 5.3214 -999 -999 -999
2011-01-14 09:03:22 51°29.562 2°52.592 5.3235 -999 -999 -999
2011-01-14 09:03:27 51°29.581 2°52.59 5.3279 -999 -999 -999
2011-01-14 09:03:32 51°29.6 2°52.582 5.327 -999 -999 -999
2011-01-14 09:03:37 51°29.618 2°52.577 5.3277 -999 -999 -999
2011-01-14 09:03:42 51°29.637 2°52.572 5.3354 -999 -999 -999
2011-01-14 09:03:47 51°29.655 2°52.566 5.3321 -999 -999 -999
2011-01-14 09:03:52 51°29.674 2°52.563 5.339 -999 -999 -999
2011-01-14 09:03:57 51°29.692 2°52.557 5.3415 -999 -999 -999
2011-01-14 09:04:02 51°29.71 2°52.551 5.3432 -999 -999 -999
2011-01-14 09:04:07 51°29.729 2°52.547 5.3484 -999 -999 -999
2011-01-14 09:04:12 51°29.747 2°52.539 5.3552 -999 -999 -999
2011-01-14 09:04:17 51°29.766 2°52.536 5.3467 -999 -999 -999
2011-01-14 09:04:22 51°29.783 2°52.525 5.3533 -999 -999 -999
2011-01-14 09:04:27 51°29.802 2°52.521 5.3582 -999 -999 -999
2011-01-14 09:04:32 51°29.819 2°52.51 5.3628 -999 -999 -999
2011-01-14 09:04:37 51°29.837 2°52.508 5.3617 -999 -999 -999
2011-01-14 09:04:42 51°29.855 2°52.502 5.3617 -999 -999 -999
2011-01-14 09:04:47 51°29.873 2°52.494 5.3618 -999 -999 -999
2011-01-14 09:04:52 51°29.892 2°52.493 5.3701 -999 -999 -999
2011-01-14 09:04:57 51°29.909 2°52.484 5.3729 -999 -999 -999
2011-01-14 09:05:02 51°29.927 2°52.479 5.3717 -999 -999 -999
2011-01-14 09:05:07 51°29.946 2°52.474 5.372 -999 -999 -999
2011-01-14 09:05:12 51°29.964 2°52.466 5.3788 -999 -999 -999
2011-01-14 09:05:17 51°29.983 2°52.465 5.377 -999 -999 -999
2011-01-14 09:05:22 51°30 2°52.454 5.385 -999 -999 -999
2011-01-14 09:05:27 51°30.019 2°52.449 5.3817 -999 -999 -999
2011-01-14 09:05:32 51°30.036 2°52.439 5.3878 -999 -999 -999
2011-01-14 09:05:37 51°30.055 2°52.435 5.3878 -999 -999 -999
2011-01-14 09:05:42 51°30.072 2°52.425 5.394 -999 -999 -999
2011-01-14 09:05:47 51°30.091 2°52.422 5.3967 -999 -999 -999
2011-01-14 09:05:52 51°30.11 2°52.414 5.4003 -999 -999 -999
2011-01-14 09:05:57 51°30.128 2°52.409 5.3961 -999 -999 -999
2011-01-14 09:06:02 51°30.147 2°52.405 5.3977 -999 -999 -999
2011-01-14 09:06:07 51°30.165 2°52.397 5.4001 -999 -999 -999
2011-01-14 09:06:12 51°30.183 2°52.392 5.4026 -999 -999 -999
2011-01-14 09:06:17 51°30.202 2°52.386 5.4055 -999 -999 -999
2011-01-14 09:06:22 51°30.221 2°52.382 5.4104 -999 -999 -999
2011-01-14 09:06:27 51°30.238 2°52.373 5.4139 -999 -999 -999
2011-01-14 09:06:32 51°30.256 2°52.365 5.4189 -999 -999 -999
2011-01-14 09:06:37 51°30.274 2°52.359 5.4222 -999 -999 -999
2011-01-14 09:06:42 51°30.293 2°52.353 5.4259 -999 -999 -999